Regional Weather Roundup
Issued by NWS Green Bay, WI

Home | Current Version | Previous Version | Text Only | Print | Product List | Glossary Off
Versions: 1 2 3 4 5 6 7 8 9 10 11 12 13 14 15 16 17 18 19 20 21 22 23 24 25 26 27 28 29 30 31 32 33 34 35 36 37 38 39 40 41 42 43 44 45 46 47 48 49 50

000
ASUS43 KGRB 212110
RWRGRB

NORTH-CENTRAL AND NORTHEAST WISCONSIN REGIONAL WEATHER ROUNDUP
NATIONAL WEATHER SERVICE GREEN BAY WI
400 PM CDT TUE OCT 21 2014

WIZ005-009-010>012-018-019-212200-
NORTH CENTRAL WISCONSIN

CITY           SKY/WX    TMP DP  RH WIND       PRES   REMARKS
IRONWOOD       SUNNY     46  36  66 S3        30.21S
MANITOWISH WTR SUNNY     46  35  64 E5        30.23S
ARBOR VITAE    SUNNY     47  36  65 SE5       30.23R
EAGLE RIVER    SUNNY     47  31  54 CALM      30.23R
LAND O LAKES   SUNNY     49  31  49 SE5       30.23S
RHINELANDER    SUNNY     48  34  58 E5        30.23S
PHILLIPS       SUNNY     47  35  62 NE3       30.21F
ANTIGO         SUNNY     50  34  55 N5        30.21S
TOMAHAWK       SUNNY     49  34  55 CALM      30.23S
MERRILL        SUNNY     51  35  53 S3        30.22S
$$

WIZ013-073-212200-
NORTHEAST WISCONSIN

CITY           SKY/WX    TMP DP  RH WIND       PRES   REMARKS
IRON MOUNTAIN  SUNNY     51  29  42 N6        30.22S
MARINETTE      SUNNY     50  36  57 SE8       30.22S
OCONTO         SUNNY     51  35  56 SE5       30.22S
$$

WIZ017-030-035>037-045-212200-
CENTRAL WISCONSIN

CITY           SKY/WX    TMP DP  RH WIND       PRES   REMARKS
MEDFORD        SUNNY     49  35  59 CALM      30.21S
WAUSAU         SUNNY     51  35  54 W3        30.20F
MOSINEE        NOT AVBL
MARSHFIELD     SUNNY     51  36  56 E8        30.21F
WISC RAPIDS    SUNNY     51  35  54 SE7       30.23F
STEVENS POINT  SUNNY     50  34  54 CALM      30.22S
WAUPACA        SUNNY     55  34  46 E3        30.23S
SHAWANO        SUNNY     55  32  42 E3        30.22F
CLINTONVILLE   SUNNY     52  30  43 NE3       30.22S
$$

WIZ038-039-048-051-212200-
FOX VALLEY

CITY           SKY/WX    TMP DP  RH WIND       PRES   REMARKS
NWS GREEN BAY  SUNNY     51  36  56 NE6       30.23S
APPLETON       MOSUNNY   52  30  43 VRB6      30.22S
OSHKOSH        SUNNY     50  36  58 NE8       30.23S
FOND DU LAC    SUNNY     50  36  58 NE9       30.23S
$$

WIZ022-050-052-212200-
EAST CENTRAL WISCONSIN

CITY           SKY/WX    TMP DP  RH WIND       PRES   REMARKS
STURGEON BAY   SUNNY     50  30  46 N10       30.23S
MANITOWOC      SUNNY     49  39  68 VRB7      30.23R
SHEBOYGAN      SUNNY     50  38  63 NE12      30.22S
$$

LMZ563-521-522-541>543-212200-
LAKESHORE

STATION/POSITION TIME  TEMP    WIND        PRES    VSBY  WAVE
                       AIR SEA DIR/SP/G                  HT/PER
                 (UTC) (F)     (DEG/KT/KT) (MB)    (MI)  (FT/S)
SHEBOYGAN LKSHOR 2100   47 50   30/ 16/ 17 1023.9S
KEWAUNEE LKSHORE 2100   48      40/  8/ 10 1022.7R
TWO RIVERS CG    2100   48                 1023.2      6   2
NORTHPORT PIER   2100   49     340/ 10/ 12 1023.4S
N MID LAKE BUOY  2100   47 51   40/ 10/ 14 1023.7R         2/ 4
STURGEON BAY CG  2100   49 50   60/  8     1023.6      6   2
CHAMBERS ISLAND  2100   49      20/  9/ 12 1023.7S
MENOMINEE LKSHOR 2100   49      40/  7/  9 1024.1S
$$



USA.gov is the U.S. government's official web portal to all federal, state and local government web resources and services.